Airfield :
LOGIN :

Register | Disclaimer

   EN    FR    IT 

 










Legend :    VFR   Marginal VFR   IFR   Intensive IFR   Very Intensive IFR
Visi :
Ceiling :
>= 8 km
>= 3000ft
5 to 8 km
1000 to 3000 ft
1500m to 5 km
500 to 1000 ft
800 to 1500m
200 to 500 ft
< 800m
< 200 ft
Symbols :   Thunderstorms  Fog  Heavy snow  Heavy precipitations  Wind > 20 kt
SIGMETs :     Misc.  Thunderstorms  Icing  Turbulence  Mountain Waves  Volcanic Ashes







- Airport Elevation : 20 ft
- IATA code : BJA


DAAE - Soummam - Bejaia

CURRENT METAR :
  • 200700Z 23003KT 8000 SCT016 26/23 Q1018

EXPIRED METARs :
  • 200600Z 22002KT 8000 SCT016 25/23 Q1018
  • 200500Z 22003KT 8000 FEW010 SCT016 25/23 Q1017

TAF TAF DAAE
Valid from the 20 at 06:00 until the 21 at 06:00 UTC


200500Z 2006/2106 18005KT 9999 FEW016
TEMPO 2006/2009 2000 BR SCT008
BECMG 2010/2012 04014KT
PROB30
TEMPO 2012/2018 FEW020TCU
BECMG 2020/2022 32005KT
No reported NOTAMs for that airfield.



MET'MAP, your aeronautical weather chart ! - Copyright ORBIFLY December 2007 - Disclaimer

ORBIFLY MET'MAP TEAM :

Programming & Development : Alexandra Zaïnal
Concept & Development : Baudouin d'Aumeries
Co-Development & Prog : Marc-Olivier Méhu
Technical & hardware support : Manuel Goepfert

Contact : metmap@orbifly.com




SOURCES & CREDITS :

   NOAA